Time,TemperatureF,DewpointF,PressureIn,WindDirection,WindDirectionDegrees,WindSpeedMPH,WindSpeedGustMPH,Humidity,HourlyPrecipIn,Conditions,Clouds,dailyrainin,SoftwareType,DateUTC
2013-04-11 00:00:00,45.9,39.1,29.87,SE,135,0.0,0.0,77,0.00,,,0.00,WUHU21636XXSP,2013-04-10 22:00:00,
2013-04-11 00:05:00,45.7,39.0,29.87,ESE,113,0.0,0.0,77,0.00,,,0.00,WUHU21636XXSP,2013-04-10 22:05:00,
2013-04-11 00:10:00,45.5,38.8,29.87,ESE,113,0.0,0.0,77,0.00,,,0.00,WUHU21636XXSP,2013-04-10 22:10:00,
2013-04-11 00:15:00,45.5,38.8,29.87,WNW,293,1.6,1.6,77,0.00,,,0.00,WUHU21636XXSP,2013-04-10 22:15:00,
2013-04-11 00:20:00,45.5,39.1,29.87,NW,315,0.0,1.6,78,0.00,,,0.00,WUHU21636XXSP,2013-04-10 22:20:00,
2013-04-11 00:25:00,45.3,38.9,29.87,SE,135,2.7,2.7,78,0.00,,,0.00,WUHU21636XXSP,2013-04-10 22:25:00,
2013-04-11 00:30:00,45.3,38.9,29.87,WNW,293,0.0,2.7,78,0.00,,,0.00,WUHU21636XXSP,2013-04-10 22:30:00,
2013-04-11 00:35:00,45.3,38.9,29.87,SE,135,0.0,2.7,78,0.00,,,0.00,WUHU21636XXSP,2013-04-10 22:35:00,
2013-04-11 00:40:00,45.3,38.9,29.87,ESE,113,0.0,0.0,78,0.00,,,0.00,WUHU21636XXSP,2013-04-10 22:40:00,
2013-04-11 00:45:00,45.3,38.9,29.87,SE,135,0.0,0.0,78,0.00,,,0.00,WUHU21636XXSP,2013-04-10 22:45:00,
2013-04-11 00:50:00,45.1,38.7,29.87,SE,135,2.0,2.0,78,0.00,,,0.00,WUHU21636XXSP,2013-04-10 22:50:00,
2013-04-11 00:55:00,45.1,38.7,29.87,SE,135,1.3,2.0,78,0.00,,,0.00,WUHU21636XXSP,2013-04-10 22:55:00,
2013-04-11 01:00:00,45.0,38.6,29.87,SE,135,1.3,2.0,78,0.00,,,0.00,WUHU21636XXSP,2013-04-10 23:00:00,
2013-04-11 01:05:00,44.8,38.4,29.87,ESE,113,3.1,3.1,78,0.00,,,0.00,WUHU21636XXSP,2013-04-10 23:05:00,
2013-04-11 01:10:00,44.8,38.7,29.87,NNW,338,1.3,3.1,79,0.00,,,0.00,WUHU21636XXSP,2013-04-10 23:10:00,
2013-04-11 01:15:00,44.8,38.7,29.87,SE,135,2.2,3.1,79,0.00,,,0.00,WUHU21636XXSP,2013-04-10 23:15:00,
2013-04-11 01:20:00,44.8,38.7,29.87,ESE,113,0.4,2.2,79,0.00,,,0.00,WUHU21636XXSP,2013-04-10 23:20:00,
2013-04-11 01:25:00,44.8,38.7,29.87,SE,135,0.0,2.2,79,0.00,,,0.00,WUHU21636XXSP,2013-04-10 23:25:00,
2013-04-11 01:30:00,44.4,38.3,29.87,SE,135,1.3,1.3,79,0.00,,,0.00,WUHU21636XXSP,2013-04-10 23:30:00,
2013-04-11 01:35:00,44.4,38.3,29.87,NW,315,0.0,1.3,79,0.00,,,0.00,WUHU21636XXSP,2013-04-10 23:35:00,
2013-04-11 01:40:00,44.4,38.3,29.87,NW,315,0.0,1.3,79,0.00,,,0.00,WUHU21636XXSP,2013-04-10 23:40:00,
2013-04-11 01:45:00,44.4,38.3,29.87,SE,135,0.0,0.0,79,0.00,,,0.00,WUHU21636XXSP,2013-04-10 23:45:00,
2013-04-11 01:50:00,44.4,38.3,29.86,SE,135,0.0,0.0,79,0.00,,,0.00,WUHU21636XXSP,2013-04-10 23:50:00,
2013-04-11 01:55:00,44.4,38.3,29.87,ESE,113,0.0,0.0,79,0.00,,,0.00,WUHU21636XXSP,2013-04-10 23:55:00,
2013-04-11 02:00:00,44.4,38.3,29.87,NW,315,1.1,1.1,79,0.00,,,0.00,WUHU21636XXSP,2013-04-11 00:00:00,
2013-04-11 02:05:00,44.4,38.3,29.87,ESE,113,4.0,4.0,79,0.00,,,0.00,WUHU21636XXSP,2013-04-11 00:05:00,
2013-04-11 02:10:00,44.2,38.1,29.87,ESE,113,0.0,4.0,79,0.00,,,0.00,WUHU21636XXSP,2013-04-11 00:10:00,
2013-04-11 02:15:00,44.2,38.4,29.87,ESE,113,0.0,4.0,80,0.00,,,0.00,WUHU21636XXSP,2013-04-11 00:15:00,
2013-04-11 02:20:00,43.9,37.8,29.86,ESE,113,0.0,0.0,79,0.00,,,0.00,WUHU21636XXSP,2013-04-11 00:20:00,
2013-04-11 02:25:00,43.5,37.8,29.86,ESE,113,0.0,0.0,80,0.00,,,0.00,WUHU21636XXSP,2013-04-11 00:25:00,
2013-04-11 02:30:00,43.3,37.6,29.86,ESE,113,0.0,0.0,80,0.00,,,0.00,WUHU21636XXSP,2013-04-11 00:30:00,
2013-04-11 02:35:00,43.2,37.5,29.86,ESE,113,0.0,0.0,80,0.00,,,0.00,WUHU21636XXSP,2013-04-11 00:35:00,
2013-04-11 02:40:00,43.0,37.3,29.86,ESE,113,0.0,0.0,80,0.00,,,0.00,WUHU21636XXSP,2013-04-11 00:40:00,
2013-04-11 02:45:00,43.0,37.6,29.86,ESE,113,0.0,0.0,81,0.00,,,0.00,WUHU21636XXSP,2013-04-11 00:45:00,
2013-04-11 02:50:00,42.8,37.4,29.86,SE,135,0.0,0.0,81,0.00,,,0.00,WUHU21636XXSP,2013-04-11 00:50:00,
2013-04-11 02:55:00,42.8,37.4,29.86,ESE,113,0.0,0.0,81,0.00,,,0.00,WUHU21636XXSP,2013-04-11 00:55:00,
2013-04-11 03:00:00,42.8,37.4,29.86,ESE,113,0.0,0.0,81,0.00,,,0.00,WUHU21636XXSP,2013-04-11 01:00:00,
2013-04-11 03:05:00,42.6,37.2,29.86,ESE,113,1.1,1.1,81,0.00,,,0.00,WUHU21636XXSP,2013-04-11 01:05:00,
2013-04-11 03:10:00,42.6,37.5,29.86,SE,135,0.0,1.1,82,0.00,,,0.00,WUHU21636XXSP,2013-04-11 01:10:00,
2013-04-11 03:15:00,42.6,37.5,29.86,SE,135,0.0,1.1,82,0.00,,,0.00,WUHU21636XXSP,2013-04-11 01:15:00,
2013-04-11 03:20:00,42.4,37.3,29.86,SE,135,0.0,0.0,82,0.00,,,0.00,WUHU21636XXSP,2013-04-11 01:20:00,
2013-04-11 03:25:00,42.4,37.3,29.86,SE,135,0.0,0.0,82,0.00,,,0.00,WUHU21636XXSP,2013-04-11 01:25:00,
2013-04-11 03:30:00,42.1,36.7,29.86,SE,135,0.0,0.0,81,0.00,,,0.00,WUHU21636XXSP,2013-04-11 01:30:00,
2013-04-11 03:35:00,41.7,36.3,29.86,SE,135,0.0,0.0,81,0.00,,,0.00,WUHU21636XXSP,2013-04-11 01:35:00,
2013-04-11 03:40:00,41.2,35.8,29.86,SE,135,0.0,0.0,81,0.00,,,0.00,WUHU21636XXSP,2013-04-11 01:40:00,
2013-04-11 03:45:00,40.6,35.5,29.86,SE,135,0.0,0.0,82,0.00,,,0.00,WUHU21636XXSP,2013-04-11 01:45:00,
2013-04-11 03:50:00,40.6,35.5,29.86,SE,135,0.0,0.0,82,0.00,,,0.00,WUHU21636XXSP,2013-04-11 01:50:00,
2013-04-11 03:55:00,40.3,35.2,29.86,SE,135,0.0,0.0,82,0.00,,,0.00,WUHU21636XXSP,2013-04-11 01:55:00,
2013-04-11 04:00:00,39.7,34.7,29.85,SE,135,0.0,0.0,82,0.00,,,0.00,WUHU21636XXSP,2013-04-11 02:00:00,
2013-04-11 04:05:00,39.7,34.7,29.85,SE,135,0.0,0.0,82,0.00,,,0.00,WUHU21636XXSP,2013-04-11 02:05:00,
2013-04-11 04:10:00,39.4,34.4,29.85,SE,135,0.0,0.0,82,0.00,,,0.00,WUHU21636XXSP,2013-04-11 02:10:00,
2013-04-11 04:15:00,39.0,34.0,29.85,SE,135,0.0,0.0,82,0.00,,,0.00,WUHU21636XXSP,2013-04-11 02:15:00,
2013-04-11 04:20:00,39.0,34.3,29.85,SE,135,0.0,0.0,83,0.00,,,0.00,WUHU21636XXSP,2013-04-11 02:20:00,
2013-04-11 04:25:00,38.8,34.1,29.85,SE,135,0.0,0.0,83,0.00,,,0.00,WUHU21636XXSP,2013-04-11 02:25:00,
2013-04-11 04:30:00,38.8,34.1,29.85,SE,135,0.0,0.0,83,0.00,,,0.00,WUHU21636XXSP,2013-04-11 02:30:00,
2013-04-11 04:35:00,38.8,34.1,29.85,SE,135,0.0,0.0,83,0.00,,,0.00,WUHU21636XXSP,2013-04-11 02:35:00,
2013-04-11 04:40:00,38.8,34.4,29.85,SE,135,0.0,0.0,84,0.00,,,0.00,WUHU21636XXSP,2013-04-11 02:40:00,
2013-04-11 04:45:00,39.0,34.6,29.85,SE,135,0.0,0.0,84,0.00,,,0.00,WUHU21636XXSP,2013-04-11 02:45:00,
2013-04-11 04:50:00,39.2,35.1,29.85,SE,135,0.0,0.0,85,0.00,,,0.00,WUHU21636XXSP,2013-04-11 02:50:00,
2013-04-11 04:55:00,39.2,35.1,29.85,SE,135,0.0,0.0,85,0.00,,,0.00,WUHU21636XXSP,2013-04-11 02:55:00,
2013-04-11 05:00:00,39.4,35.2,29.84,SE,135,0.0,0.0,85,0.00,,,0.00,WUHU21636XXSP,2013-04-11 03:00:00,
2013-04-11 05:05:00,39.6,35.4,29.84,SE,135,0.0,0.0,85,0.00,,,0.00,WUHU21636XXSP,2013-04-11 03:05:00,
2013-04-11 05:10:00,39.6,35.4,29.84,SE,135,0.0,0.0,85,0.00,,,0.00,WUHU21636XXSP,2013-04-11 03:10:00,
2013-04-11 05:15:00,39.6,35.4,29.84,SE,135,0.0,0.0,85,0.00,,,0.00,WUHU21636XXSP,2013-04-11 03:15:00,
2013-04-11 05:20:00,39.6,35.7,29.84,SE,135,0.0,0.0,86,0.00,,,0.00,WUHU21636XXSP,2013-04-11 03:20:00,
2013-04-11 05:25:00,39.7,35.8,29.85,SE,135,0.0,0.0,86,0.00,,,0.00,WUHU21636XXSP,2013-04-11 03:25:00,
2013-04-11 05:30:00,39.7,35.8,29.85,SE,135,0.0,0.0,86,0.00,,,0.00,WUHU21636XXSP,2013-04-11 03:30:00,
2013-04-11 05:35:00,39.7,35.8,29.84,SE,135,0.0,0.0,86,0.00,,,0.00,WUHU21636XXSP,2013-04-11 03:35:00,
2013-04-11 05:40:00,39.7,35.8,29.84,SE,135,0.0,0.0,86,0.00,,,0.00,WUHU21636XXSP,2013-04-11 03:40:00,
2013-04-11 05:45:00,39.7,35.8,29.84,SE,135,0.0,0.0,86,0.00,,,0.00,WUHU21636XXSP,2013-04-11 03:45:00,
2013-04-11 05:50:00,39.7,35.8,29.84,SE,135,0.0,0.0,86,0.00,,,0.00,WUHU21636XXSP,2013-04-11 03:50:00,
2013-04-11 05:55:00,39.7,36.1,29.84,SE,135,0.0,0.0,87,0.00,,,0.00,WUHU21636XXSP,2013-04-11 03:55:00,
2013-04-11 06:00:00,39.7,36.1,29.84,SE,135,0.0,0.0,87,0.00,,,0.00,WUHU21636XXSP,2013-04-11 04:00:00,
2013-04-11 06:05:00,39.7,36.1,29.84,SE,135,0.0,0.0,87,0.00,,,0.00,WUHU21636XXSP,2013-04-11 04:05:00,
2013-04-11 06:10:00,39.7,36.1,29.84,SE,135,0.0,0.0,87,0.00,,,0.00,WUHU21636XXSP,2013-04-11 04:10:00,
2013-04-11 06:15:00,39.7,36.1,29.84,SE,135,0.0,0.0,87,0.00,,,0.00,WUHU21636XXSP,2013-04-11 04:15:00,
2013-04-11 06:20:00,39.7,36.1,29.84,SE,135,0.0,0.0,87,0.00,,,0.00,WUHU21636XXSP,2013-04-11 04:20:00,
2013-04-11 06:25:00,39.7,36.1,29.84,SE,135,0.0,0.0,87,0.00,,,0.00,WUHU21636XXSP,2013-04-11 04:25:00,
2013-04-11 06:30:00,39.7,36.1,29.83,SE,135,0.0,0.0,87,0.00,,,0.00,WUHU21636XXSP,2013-04-11 04:30:00,
2013-04-11 06:35:00,40.1,36.8,29.83,SE,135,0.0,0.0,88,0.00,,,0.00,WUHU21636XXSP,2013-04-11 04:35:00,
2013-04-11 06:40:00,40.1,36.8,29.83,SE,135,0.0,0.0,88,0.00,,,0.00,WUHU21636XXSP,2013-04-11 04:40:00,
2013-04-11 06:45:00,40.3,37.0,29.83,SE,135,0.0,0.0,88,0.00,,,0.00,WUHU21636XXSP,2013-04-11 04:45:00,
2013-04-11 06:50:00,40.3,37.0,29.83,SE,135,0.0,0.0,88,0.00,,,0.00,WUHU21636XXSP,2013-04-11 04:50:00,
2013-04-11 06:55:00,40.5,37.2,29.83,SE,135,0.0,0.0,88,0.00,,,0.00,WUHU21636XXSP,2013-04-11 04:55:00,
2013-04-11 07:00:00,40.6,37.3,29.83,SE,135,0.0,0.0,88,0.00,,,0.00,WUHU21636XXSP,2013-04-11 05:00:00,
2013-04-11 07:05:00,40.6,37.3,29.83,SE,135,0.0,0.0,88,0.00,,,0.00,WUHU21636XXSP,2013-04-11 05:05:00,
2013-04-11 07:10:00,40.6,37.3,29.83,SE,135,0.0,0.0,88,0.00,,,0.00,WUHU21636XXSP,2013-04-11 05:10:00,
2013-04-11 07:15:00,40.6,37.3,29.83,SE,135,0.0,0.0,88,0.00,,,0.00,WUHU21636XXSP,2013-04-11 05:15:00,
2013-04-11 07:20:00,40.8,37.5,29.83,SE,135,0.0,0.0,88,0.00,,,0.00,WUHU21636XXSP,2013-04-11 05:20:00,
2013-04-11 07:25:00,41.0,37.7,29.83,SE,135,0.0,0.0,88,0.00,,,0.00,WUHU21636XXSP,2013-04-11 05:25:00,
2013-04-11 07:30:00,41.2,37.9,29.83,SE,135,0.0,0.0,88,0.00,,,0.00,WUHU21636XXSP,2013-04-11 05:30:00,
2013-04-11 07:35:00,41.4,38.1,29.83,SE,135,0.0,0.0,88,0.00,,,0.00,WUHU21636XXSP,2013-04-11 05:35:00,
2013-04-11 07:40:00,41.7,38.7,29.83,SE,135,0.0,0.0,89,0.00,,,0.00,WUHU21636XXSP,2013-04-11 05:40:00,
2013-04-11 07:45:00,41.9,38.9,29.83,SE,135,0.0,0.0,89,0.00,,,0.00,WUHU21636XXSP,2013-04-11 05:45:00,
2013-04-11 07:50:00,42.1,39.1,29.83,SE,135,0.0,0.0,89,0.00,,,0.00,WUHU21636XXSP,2013-04-11 05:50:00,
2013-04-11 07:55:00,42.4,39.3,29.82,SE,135,0.0,0.0,89,0.00,,,0.00,WUHU21636XXSP,2013-04-11 05:55:00,
2013-04-11 08:00:00,42.6,39.5,29.82,SE,135,0.0,0.0,89,0.00,,,0.00,WUHU21636XXSP,2013-04-11 06:00:00,
2013-04-11 08:05:00,42.8,39.7,29.82,SE,135,0.0,0.0,89,0.00,,,0.00,WUHU21636XXSP,2013-04-11 06:05:00,
2013-04-11 08:10:00,43.2,40.1,29.82,SE,135,0.0,0.0,89,0.00,,,0.00,WUHU21636XXSP,2013-04-11 06:10:00,
2013-04-11 08:15:00,43.3,40.2,29.82,SE,135,0.0,0.0,89,0.00,,,0.00,WUHU21636XXSP,2013-04-11 06:15:00,
2013-04-11 08:20:00,43.5,40.4,29.82,West,270,0.0,0.0,89,0.00,,,0.00,WUHU21636XXSP,2013-04-11 06:20:00,
2013-04-11 08:25:00,43.9,40.5,29.81,West,270,0.0,0.0,88,0.00,,,0.00,WUHU21636XXSP,2013-04-11 06:25:00,
2013-04-11 08:30:00,43.9,40.5,29.81,WNW,293,0.0,0.0,88,0.00,,,0.00,WUHU21636XXSP,2013-04-11 06:30:00,
2013-04-11 08:35:00,44.2,40.8,29.81,WNW,293,0.0,0.0,88,0.00,,,0.00,WUHU21636XXSP,2013-04-11 06:35:00,
2013-04-11 08:40:00,44.2,40.8,29.82,WNW,293,0.0,0.0,88,0.00,,,0.00,WUHU21636XXSP,2013-04-11 06:40:00,
2013-04-11 08:45:00,44.4,40.7,29.81,WNW,293,0.0,0.0,87,0.00,,,0.00,WUHU21636XXSP,2013-04-11 06:45:00,
2013-04-11 08:50:00,44.4,40.7,29.81,WNW,293,0.0,0.0,87,0.00,,,0.00,WUHU21636XXSP,2013-04-11 06:50:00,
2013-04-11 08:55:00,44.4,40.7,29.81,WNW,293,0.0,0.0,87,0.00,,,0.00,WUHU21636XXSP,2013-04-11 06:55:00,
2013-04-11 09:00:00,44.8,41.4,29.81,WNW,293,0.0,0.0,88,0.00,,,0.00,WUHU21636XXSP,2013-04-11 07:00:00,
2013-04-11 09:05:00,44.8,41.1,29.80,SE,135,0.0,0.0,87,0.00,,,0.00,WUHU21636XXSP,2013-04-11 07:05:00,
2013-04-11 09:10:00,44.8,41.1,29.80,NW,315,0.0,0.0,87,0.00,,,0.00,WUHU21636XXSP,2013-04-11 07:10:00,
2013-04-11 09:15:00,45.1,41.4,29.80,NW,315,0.0,0.0,87,0.00,,,0.00,WUHU21636XXSP,2013-04-11 07:15:00,
2013-04-11 09:20:00,45.1,41.4,29.80,NW,315,0.0,0.0,87,0.00,,,0.00,WUHU21636XXSP,2013-04-11 07:20:00,
2013-04-11 09:25:00,45.3,41.6,29.80,NW,315,0.0,0.0,87,0.00,,,0.00,WUHU21636XXSP,2013-04-11 07:25:00,
2013-04-11 09:30:00,45.5,41.5,29.80,NW,315,0.0,0.0,86,0.00,,,0.00,WUHU21636XXSP,2013-04-11 07:30:00,
2013-04-11 09:35:00,45.7,41.7,29.80,NW,315,0.0,0.0,86,0.00,,,0.00,WUHU21636XXSP,2013-04-11 07:35:00,
2013-04-11 09:40:00,45.9,41.9,29.80,NW,315,0.0,0.0,86,0.00,,,0.00,WUHU21636XXSP,2013-04-11 07:40:00,
2013-04-11 09:45:00,46.0,42.0,29.80,SE,135,0.9,0.9,86,0.00,,,0.00,WUHU21636XXSP,2013-04-11 07:45:00,
2013-04-11 09:50:00,46.4,42.1,29.80,SE,135,0.0,0.9,85,0.00,,,0.00,WUHU21636XXSP,2013-04-11 07:50:00,
2013-04-11 09:55:00,46.6,42.3,29.80,ESE,113,2.0,2.0,85,0.00,,,0.00,WUHU21636XXSP,2013-04-11 07:55:00,
2013-04-11 10:00:00,46.9,42.3,29.80,NW,315,0.0,2.0,84,0.00,,,0.00,WUHU21636XXSP,2013-04-11 08:00:00,
2013-04-11 10:05:00,47.3,42.4,29.79,SE,135,0.0,2.0,83,0.00,,,0.00,WUHU21636XXSP,2013-04-11 08:05:00,
2013-04-11 10:10:00,48.0,41.8,29.79,SE,135,0.0,0.0,79,0.00,,,0.00,WUHU21636XXSP,2013-04-11 08:10:00,
2013-04-11 10:15:00,48.9,42.4,29.79,WNW,293,0.0,0.0,78,0.00,,,0.00,WUHU21636XXSP,2013-04-11 08:15:00,
2013-04-11 10:20:00,49.3,42.5,29.79,SE,135,0.0,0.0,77,0.00,,,0.00,WUHU21636XXSP,2013-04-11 08:20:00,
2013-04-11 10:25:00,49.3,42.1,29.79,South,180,0.0,0.0,76,0.00,,,0.00,WUHU21636XXSP,2013-04-11 08:25:00,
2013-04-11 10:30:00,49.3,42.1,29.80,SE,135,1.6,1.6,76,0.00,,,0.00,WUHU21636XXSP,2013-04-11 08:30:00,
2013-04-11 10:35:00,49.3,42.1,29.79,SE,135,0.0,1.6,76,0.00,,,0.00,WUHU21636XXSP,2013-04-11 08:35:00,
2013-04-11 10:40:00,49.5,42.3,29.79,SE,135,0.0,1.6,76,0.00,,,0.00,WUHU21636XXSP,2013-04-11 08:40:00,
2013-04-11 10:45:00,49.5,42.3,29.79,SE,135,0.0,0.0,76,0.00,,,0.00,WUHU21636XXSP,2013-04-11 08:45:00,
2013-04-11 10:50:00,49.3,42.5,29.79,WNW,293,0.0,0.0,77,0.00,,,0.00,WUHU21636XXSP,2013-04-11 08:50:00,
2013-04-11 10:55:00,48.9,42.1,29.79,SE,135,0.0,0.0,77,0.00,,,0.00,WUHU21636XXSP,2013-04-11 08:55:00,
2013-04-11 11:00:00,48.9,42.4,29.79,SE,135,0.0,0.0,78,0.00,,,0.00,WUHU21636XXSP,2013-04-11 09:00:00,
2013-04-11 11:05:00,48.7,42.5,29.79,WNW,293,0.7,0.7,79,0.00,,,0.00,WUHU21636XXSP,2013-04-11 09:05:00,
2013-04-11 11:10:00,48.7,42.8,29.79,NW,315,0.0,0.7,80,0.02,,,0.02,WUHU21636XXSP,2013-04-11 09:10:00,
2013-04-11 11:15:00,48.7,42.8,29.78,WNW,293,0.0,0.7,80,0.02,,,0.02,WUHU21636XXSP,2013-04-11 09:15:00,
2013-04-11 11:20:00,48.9,43.3,29.78,ESE,113,0.0,0.0,81,0.02,,,0.02,WUHU21636XXSP,2013-04-11 09:20:00,
2013-04-11 11:25:00,49.3,43.1,29.78,SE,135,0.0,0.0,79,0.02,,,0.02,WUHU21636XXSP,2013-04-11 09:25:00,
2013-04-11 11:30:00,49.3,43.1,29.78,WNW,293,0.0,0.0,79,0.02,,,0.02,WUHU21636XXSP,2013-04-11 09:30:00,
2013-04-11 11:35:00,49.6,43.1,29.78,SE,135,0.0,0.0,78,0.02,,,0.02,WUHU21636XXSP,2013-04-11 09:35:00,
2013-04-11 11:40:00,49.6,43.1,29.77,SE,135,1.1,1.1,78,0.02,,,0.02,WUHU21636XXSP,2013-04-11 09:40:00,
2013-04-11 11:45:00,49.8,43.3,29.77,ESE,113,0.0,1.1,78,0.02,,,0.02,WUHU21636XXSP,2013-04-11 09:45:00,
2013-04-11 11:50:00,50.2,43.7,29.77,ESE,113,0.0,1.1,78,0.02,,,0.02,WUHU21636XXSP,2013-04-11 09:50:00,
2013-04-11 11:55:00,50.4,43.9,29.77,SW,225,0.0,0.0,78,0.02,,,0.02,WUHU21636XXSP,2013-04-11 09:55:00,
2013-04-11 12:00:00,50.7,44.1,29.76,NW,315,0.9,0.9,78,0.02,,,0.02,WUHU21636XXSP,2013-04-11 10:00:00,
2013-04-11 12:05:00,51.1,43.5,29.76,ESE,113,1.1,1.1,75,0.00,,,0.02,WUHU21636XXSP,2013-04-11 10:05:00,
2013-04-11 12:10:00,51.6,44.0,29.76,NW,315,0.0,1.1,75,0.00,,,0.02,WUHU21636XXSP,2013-04-11 10:10:00,
2013-04-11 12:15:00,52.0,44.4,29.76,North,0,0.0,1.1,75,0.00,,,0.02,WUHU21636XXSP,2013-04-11 10:15:00,
2013-04-11 12:20:00,52.3,44.3,29.76,SE,135,2.5,2.5,74,0.00,,,0.02,WUHU21636XXSP,2013-04-11 10:20:00,
2013-04-11 12:25:00,52.5,44.5,29.76,ESE,113,0.7,2.5,74,0.00,,,0.02,WUHU21636XXSP,2013-04-11 10:25:00,
2013-04-11 12:30:00,53.1,44.8,29.76,ESE,113,2.2,2.5,73,0.00,,,0.02,WUHU21636XXSP,2013-04-11 10:30:00,
2013-04-11 12:35:00,53.4,45.1,29.75,SE,135,1.3,2.2,73,0.00,,,0.02,WUHU21636XXSP,2013-04-11 10:35:00,
2013-04-11 12:40:00,54.0,45.3,29.75,ESE,113,0.0,2.2,72,0.00,,,0.02,WUHU21636XXSP,2013-04-11 10:40:00,
2013-04-11 12:45:00,54.0,44.6,29.76,SE,135,2.7,2.7,70,0.00,,,0.02,WUHU21636XXSP,2013-04-11 10:45:00,
2013-04-11 12:50:00,54.3,44.1,29.76,ESE,113,1.3,2.7,68,0.00,,,0.02,WUHU21636XXSP,2013-04-11 10:50:00,
2013-04-11 12:55:00,54.5,43.9,29.75,SE,135,1.1,2.7,67,0.00,,,0.02,WUHU21636XXSP,2013-04-11 10:55:00,
2013-04-11 13:00:00,54.7,44.1,29.76,ESE,113,0.9,1.3,67,0.00,,,0.02,WUHU21636XXSP,2013-04-11 11:00:00,
2013-04-11 13:05:00,54.9,44.3,29.76,ESE,113,2.9,2.9,67,0.00,,,0.02,WUHU21636XXSP,2013-04-11 11:05:00,
2013-04-11 13:10:00,55.0,44.0,29.76,SE,135,4.5,4.5,66,0.00,,,0.02,WUHU21636XXSP,2013-04-11 11:10:00,
2013-04-11 13:15:00,55.2,43.4,29.75,SE,135,5.1,5.1,64,0.00,,,0.02,WUHU21636XXSP,2013-04-11 11:15:00,
2013-04-11 13:20:00,55.4,42.7,29.75,SE,135,5.8,5.8,62,0.00,,,0.02,WUHU21636XXSP,2013-04-11 11:20:00,
2013-04-11 13:25:00,55.8,43.1,29.75,SSE,158,0.0,5.8,62,0.00,,,0.02,WUHU21636XXSP,2013-04-11 11:25:00,
2013-04-11 13:30:00,55.8,43.1,29.75,SSE,158,0.0,5.8,62,0.00,,,0.02,WUHU21636XXSP,2013-04-11 11:30:00,
2013-04-11 13:35:00,55.9,43.2,29.75,SE,135,4.9,4.9,62,0.00,,,0.02,WUHU21636XXSP,2013-04-11 11:35:00,
2013-04-11 13:40:00,56.1,43.4,29.75,WNW,293,1.1,4.9,62,0.00,,,0.02,WUHU21636XXSP,2013-04-11 11:40:00,
2013-04-11 13:45:00,56.1,43.4,29.75,ESE,113,0.0,4.9,62,0.00,,,0.02,WUHU21636XXSP,2013-04-11 11:45:00,
2013-04-11 13:50:00,56.3,43.6,29.76,ESE,113,1.6,1.6,62,0.00,,,0.02,WUHU21636XXSP,2013-04-11 11:50:00,
2013-04-11 13:55:00,56.5,44.2,29.75,SE,135,0.7,1.6,63,0.00,,,0.02,WUHU21636XXSP,2013-04-11 11:55:00,
2013-04-11 14:00:00,56.5,44.2,29.76,ESE,113,2.2,2.2,63,0.00,,,0.02,WUHU21636XXSP,2013-04-11 12:00:00,
2013-04-11 14:05:00,56.5,44.6,29.75,ESE,113,4.5,4.5,64,0.00,,,0.02,WUHU21636XXSP,2013-04-11 12:05:00,
2013-04-11 14:10:00,56.5,44.6,29.75,NW,315,1.3,4.5,64,0.00,,,0.02,WUHU21636XXSP,2013-04-11 12:10:00,
2013-04-11 14:15:00,56.7,44.8,29.75,SE,135,3.8,4.5,64,0.00,,,0.02,WUHU21636XXSP,2013-04-11 12:15:00,
2013-04-11 14:20:00,56.8,44.9,29.75,ENE,68,0.0,3.8,64,0.00,,,0.02,WUHU21636XXSP,2013-04-11 12:20:00,
2013-04-11 14:25:00,56.8,44.5,29.75,NNE,23,0.0,3.8,63,0.00,,,0.02,WUHU21636XXSP,2013-04-11 12:25:00,
2013-04-11 14:30:00,57.0,44.2,29.74,SSE,158,2.9,2.9,62,0.00,,,0.02,WUHU21636XXSP,2013-04-11 12:30:00,
2013-04-11 14:35:00,57.4,45.0,29.74,ESE,113,1.8,2.9,63,0.00,,,0.02,WUHU21636XXSP,2013-04-11 12:35:00,
2013-04-11 14:40:00,57.9,45.1,29.73,North,0,1.8,2.9,62,0.00,,,0.02,WUHU21636XXSP,2013-04-11 12:40:00,
2013-04-11 14:45:00,58.1,44.8,29.74,ESE,113,4.0,4.0,61,0.00,,,0.02,WUHU21636XXSP,2013-04-11 12:45:00,
2013-04-11 14:50:00,58.3,45.5,29.74,West,270,1.3,4.0,62,0.00,,,0.02,WUHU21636XXSP,2013-04-11 12:50:00,
2013-04-11 14:55:00,58.3,45.5,29.73,West,270,3.6,4.0,62,0.00,,,0.02,WUHU21636XXSP,2013-04-11 12:55:00,
2013-04-11 15:00:00,58.6,45.3,29.74,SE,135,4.7,9.4,61,0.00,,,0.02,WUHU21636XXSP,2013-04-11 13:00:00,
2013-04-11 15:05:00,58.6,45.8,29.74,NW,315,4.7,9.4,62,0.00,,,0.02,WUHU21636XXSP,2013-04-11 13:05:00,
2013-04-11 15:10:00,58.6,45.8,29.73,WNW,293,0.9,9.4,62,0.00,,,0.02,WUHU21636XXSP,2013-04-11 13:10:00,
2013-04-11 15:15:00,58.6,45.8,29.73,ESE,113,3.8,4.7,62,0.00,,,0.02,WUHU21636XXSP,2013-04-11 13:15:00,
2013-04-11 15:20:00,58.6,46.2,29.74,WNW,293,0.0,3.8,63,0.00,,,0.02,WUHU21636XXSP,2013-04-11 13:20:00,
2013-04-11 15:25:00,58.6,46.2,29.73,NW,315,0.0,3.8,63,0.00,,,0.02,WUHU21636XXSP,2013-04-11 13:25:00,
2013-04-11 15:30:00,59.2,46.7,29.73,SE,135,1.8,1.8,63,0.00,,,0.02,WUHU21636XXSP,2013-04-11 13:30:00,
2013-04-11 15:35:00,59.7,46.8,29.72,NW,315,3.6,3.6,62,0.00,,,0.02,WUHU21636XXSP,2013-04-11 13:35:00,
2013-04-11 15:40:00,61.3,47.4,29.72,NNW,338,2.0,3.6,60,0.00,,,0.02,WUHU21636XXSP,2013-04-11 13:40:00,
2013-04-11 15:45:00,62.4,48.0,29.72,ESE,113,2.7,3.6,59,0.00,,,0.02,WUHU21636XXSP,2013-04-11 13:45:00,
2013-04-11 15:50:00,62.2,47.8,29.72,ESE,113,3.1,3.1,59,0.00,,,0.02,WUHU21636XXSP,2013-04-11 13:50:00,
2013-04-11 15:55:00,63.1,48.2,29.71,WNW,293,4.7,9.2,58,0.00,,,0.02,WUHU21636XXSP,2013-04-11 13:55:00,
2013-04-11 16:00:00,63.1,47.7,29.71,SE,135,2.9,9.2,57,0.00,,,0.02,WUHU21636XXSP,2013-04-11 14:00:00,
2013-04-11 16:05:00,62.4,47.6,29.72,NNW,338,0.7,9.2,58,0.00,,,0.02,WUHU21636XXSP,2013-04-11 14:05:00,
2013-04-11 16:10:00,61.3,47.4,29.72,ESE,113,6.5,6.7,60,0.00,,,0.02,WUHU21636XXSP,2013-04-11 14:10:00,
2013-04-11 16:15:00,60.4,47.5,29.72,ESE,113,0.9,6.7,62,0.00,,,0.02,WUHU21636XXSP,2013-04-11 14:15:00,
2013-04-11 16:20:00,60.1,47.2,29.72,SSE,158,5.4,6.7,62,0.00,,,0.02,WUHU21636XXSP,2013-04-11 14:20:00,
2013-04-11 16:25:00,59.5,47.5,29.71,SE,135,2.7,5.4,64,0.00,,,0.02,WUHU21636XXSP,2013-04-11 14:25:00,
2013-04-11 16:30:00,59.5,47.5,29.71,ESE,113,4.7,6.3,64,0.00,,,0.02,WUHU21636XXSP,2013-04-11 14:30:00,
2013-04-11 16:38:00,59.5,47.3,29.71,ESE,112,3.1,6.3,65,0.00,,,0.02,WUHU21636XXSP,2013-04-11 14:38:00,
2013-04-11 16:40:00,55.6,48.5,29.67,SE,135,3.0,4.0,77,0.00,CLR,,0.04,WeatherDisplay:10.37,2013-04-11 14:40:00,
2013-04-11 16:45:00,59.4,47.8,29.71,ESE,113,3.1,4.5,65,0.00,,,0.02,WUHU21636XXSP,2013-04-11 14:45:00,
2013-04-11 16:50:00,59.5,47.9,29.71,SE,135,4.5,4.5,65,0.02,,,0.04,WUHU21636XXSP,2013-04-11 14:50:00,
2013-04-11 16:55:00,59.9,48.3,29.71,WNW,293,2.2,4.5,65,0.02,,,0.04,WUHU21636XXSP,2013-04-11 14:55:00,
2013-04-11 17:00:00,59.9,48.1,29.70,SSE,155,2.0,5.0,65,0.00,BKN,,0.04,WeatherDisplay:10.37,2013-04-11 15:00:00,
2013-04-11 17:05:00,59.9,48.3,29.70,South,180,0.4,4.3,65,0.02,,,0.04,WUHU21636XXSP,2013-04-11 15:05:00,
2013-04-11 17:10:00,59.9,48.1,29.69,SE,139,0.0,5.0,65,0.00,BKN,,0.04,WeatherDisplay:10.37,2013-04-11 15:10:00,
2013-04-11 17:15:00,59.7,48.1,29.70,WNW,293,1.6,1.6,65,0.02,,,0.04,WUHU21636XXSP,2013-04-11 15:15:00,
2013-04-11 17:20:00,59.7,47.9,29.69,WSW,250,1.0,2.0,65,0.00,BKN,,0.04,WeatherDisplay:10.37,2013-04-11 15:20:00,
2013-04-11 17:25:00,59.4,48.2,29.71,ESE,113,6.9,6.9,66,0.02,,,0.04,WUHU21636XXSP,2013-04-11 15:25:00,
2013-04-11 17:30:00,59.4,48.0,29.70,ESE,112,7.0,7.0,66,0.00,BKN,,0.04,WeatherDisplay:10.37,2013-04-11 15:30:00,
2013-04-11 17:35:00,58.6,48.6,29.71,ESE,113,3.4,6.9,69,0.02,,,0.04,WUHU21636XXSP,2013-04-11 15:35:00,
2013-04-11 17:40:00,58.6,48.5,29.70,ESE,112,3.0,3.0,69,0.00,BKN,,0.04,WeatherDisplay:10.37,2013-04-11 15:40:00,
2013-04-11 17:45:00,57.0,48.5,29.71,ENE,68,0.9,3.4,73,0.00,,,0.04,WUHU21636XXSP,2013-04-11 15:45:00,
2013-04-11 17:50:00,57.0,48.4,29.70,East,93,1.0,1.0,73,0.00,SCT,,0.04,WeatherDisplay:10.37,2013-04-11 15:50:00,
2013-04-11 17:55:00,56.5,48.8,29.71,West,270,0.0,3.4,75,0.00,,,0.04,WUHU21636XXSP,2013-04-11 15:55:00,
2013-04-11 18:00:00,56.5,48.6,29.70,WNW,286,0.0,3.0,75,0.00,SCT,,0.04,WeatherDisplay:10.37,2013-04-11 16:00:00,
2013-04-11 18:05:00,56.3,48.9,29.71,ESE,113,0.0,1.3,76,0.00,,,0.04,WUHU21636XXSP,2013-04-11 16:05:00,
2013-04-11 18:10:00,56.3,48.8,29.70,South,175,0.0,1.0,76,0.00,SCT,,0.04,WeatherDisplay:10.37,2013-04-11 16:10:00,
2013-04-11 18:15:00,56.8,49.4,29.70,WNW,293,4.0,4.0,76,0.00,,,0.04,WUHU21636XXSP,2013-04-11 16:15:00,
2013-04-11 18:20:00,56.8,49.4,29.69,West,263,3.0,4.0,76,0.00,BKN,,0.04,WeatherDisplay:10.37,2013-04-11 16:20:00,
2013-04-11 18:25:00,58.3,50.5,29.70,SE,135,1.8,4.0,75,0.00,,,0.04,WUHU21636XXSP,2013-04-11 16:25:00,
2013-04-11 18:30:00,58.8,50.3,29.70,ESE,113,2.9,2.9,73,0.00,,,0.04,WUHU21636XXSP,2013-04-11 16:30:00,
2013-04-11 18:35:00,58.8,49.9,29.70,NNW,338,0.0,2.9,72,0.00,,,0.04,WUHU21636XXSP,2013-04-11 16:35:00,
2013-04-11 18:40:00,58.6,49.7,29.69,ESE,113,0.4,2.9,72,0.00,,,0.04,WUHU21636XXSP,2013-04-11 16:40:00,
2013-04-11 18:45:00,58.3,49.8,29.69,NNW,338,0.0,0.4,73,0.00,,,0.04,WUHU21636XXSP,2013-04-11 16:45:00,
2013-04-11 18:50:00,57.7,49.2,29.69,East,90,0.0,0.4,73,0.00,,,0.04,WUHU21636XXSP,2013-04-11 16:50:00,
2013-04-11 18:55:00,57.7,49.6,29.69,SE,135,3.1,3.1,74,0.00,,,0.04,WUHU21636XXSP,2013-04-11 16:55:00,
2013-04-11 19:00:00,57.4,49.3,29.69,ESE,113,0.9,3.1,74,0.00,,,0.04,WUHU21636XXSP,2013-04-11 17:00:00,
2013-04-11 19:05:00,57.2,49.1,29.69,ESE,113,2.9,3.1,74,0.00,,,0.04,WUHU21636XXSP,2013-04-11 17:05:00,
2013-04-11 19:10:00,57.0,49.2,29.69,ESE,113,0.0,2.9,75,0.00,,,0.04,WUHU21636XXSP,2013-04-11 17:10:00,
2013-04-11 19:15:00,57.0,49.2,29.69,SSE,158,0.0,2.9,75,0.00,,,0.04,WUHU21636XXSP,2013-04-11 17:15:00,
2013-04-11 19:20:00,56.8,49.4,29.69,NW,315,2.9,2.9,76,0.00,,,0.04,WUHU21636XXSP,2013-04-11 17:20:00,
2013-04-11 19:25:00,56.8,49.4,29.69,WNW,293,0.4,2.9,76,0.00,,,0.04,WUHU21636XXSP,2013-04-11 17:25:00,
2013-04-11 19:30:00,56.8,49.4,29.68,NW,315,0.9,2.9,76,0.00,,,0.04,WUHU21636XXSP,2013-04-11 17:30:00,
2013-04-11 19:35:00,56.5,49.1,29.68,ESE,113,1.6,1.6,76,0.00,,,0.04,WUHU21636XXSP,2013-04-11 17:35:00,
2013-04-11 19:40:00,56.3,48.9,29.68,SE,135,0.0,1.6,76,0.00,,,0.04,WUHU21636XXSP,2013-04-11 17:40:00,
2013-04-11 19:45:00,56.3,49.3,29.68,SE,135,2.2,2.2,77,0.00,,,0.04,WUHU21636XXSP,2013-04-11 17:45:00,
2013-04-11 19:50:00,56.3,49.3,29.68,ENE,68,0.0,2.2,77,0.00,,,0.04,WUHU21636XXSP,2013-04-11 17:50:00,
2013-04-11 19:55:00,56.3,49.3,29.68,SE,135,2.0,2.2,77,0.00,,,0.04,WUHU21636XXSP,2013-04-11 17:55:00,
2013-04-11 20:00:00,56.1,49.1,29.67,SE,135,0.0,2.0,77,0.00,,,0.04,WUHU21636XXSP,2013-04-11 18:00:00,
2013-04-11 20:05:00,56.1,49.1,29.68,SE,135,0.0,2.0,77,0.00,,,0.04,WUHU21636XXSP,2013-04-11 18:05:00,
2013-04-11 20:10:00,55.9,48.9,29.68,ESE,113,0.9,0.9,77,0.00,,,0.04,WUHU21636XXSP,2013-04-11 18:10:00,
2013-04-11 20:15:00,55.9,48.9,29.67,SE,135,2.2,2.2,77,0.00,,,0.04,WUHU21636XXSP,2013-04-11 18:15:00,
2013-04-11 20:20:00,55.8,48.8,29.68,SE,135,4.3,4.3,77,0.00,,,0.04,WUHU21636XXSP,2013-04-11 18:20:00,
2013-04-11 20:25:00,55.6,48.6,29.68,SE,135,2.9,4.3,77,0.00,,,0.04,WUHU21636XXSP,2013-04-11 18:25:00,
2013-04-11 20:30:00,55.6,48.6,29.68,SE,135,2.5,4.3,77,0.00,,,0.04,WUHU21636XXSP,2013-04-11 18:30:00,
2013-04-11 20:35:00,55.6,48.6,29.68,SE,135,0.9,2.9,77,0.00,,,0.04,WUHU21636XXSP,2013-04-11 18:35:00,
2013-04-11 20:40:00,55.2,48.2,29.68,SE,135,0.0,2.5,77,0.00,,,0.04,WUHU21636XXSP,2013-04-11 18:40:00,
2013-04-11 20:45:00,55.2,48.2,29.68,SE,135,1.3,1.3,77,0.00,,,0.04,WUHU21636XXSP,2013-04-11 18:45:00,
2013-04-11 20:50:00,55.2,48.2,29.68,SE,135,0.0,1.3,77,0.00,,,0.04,WUHU21636XXSP,2013-04-11 18:50:00,
2013-04-11 20:55:00,55.0,48.0,29.68,SE,135,0.7,1.3,77,0.00,,,0.04,WUHU21636XXSP,2013-04-11 18:55:00,
2013-04-11 21:00:00,55.0,48.0,29.68,ESE,113,0.4,0.7,77,0.00,,,0.04,WUHU21636XXSP,2013-04-11 19:00:00,
2013-04-11 21:05:00,55.0,48.0,29.67,SE,135,2.7,2.7,77,0.00,,,0.04,WUHU21636XXSP,2013-04-11 19:05:00,
2013-04-11 21:10:00,55.0,48.0,29.67,ESE,113,2.5,2.7,77,0.00,,,0.04,WUHU21636XXSP,2013-04-11 19:10:00,
2013-04-11 21:15:00,55.0,48.0,29.67,ESE,113,0.0,2.7,77,0.00,,,0.04,WUHU21636XXSP,2013-04-11 19:15:00,
2013-04-11 21:20:00,55.2,48.2,29.67,SE,135,0.0,2.5,77,0.00,,,0.04,WUHU21636XXSP,2013-04-11 19:20:00,
2013-04-11 21:25:00,55.2,48.2,29.67,ESE,113,2.2,2.2,77,0.00,,,0.04,WUHU21636XXSP,2013-04-11 19:25:00,
2013-04-11 21:30:00,55.2,48.2,29.67,ESE,113,2.2,2.2,77,0.00,,,0.04,WUHU21636XXSP,2013-04-11 19:30:00,
2013-04-11 21:35:00,55.2,48.2,29.67,ESE,113,2.2,2.2,77,0.00,,,0.04,WUHU21636XXSP,2013-04-11 19:35:00,
2013-04-11 21:40:00,55.4,48.4,29.67,ESE,113,5.8,6.3,77,0.00,,,0.04,WUHU21636XXSP,2013-04-11 19:40:00,
2013-04-11 21:45:00,55.4,48.4,29.67,ENE,68,2.9,8.5,77,0.00,,,0.04,WUHU21636XXSP,2013-04-11 19:45:00,
2013-04-11 21:50:00,55.6,48.6,29.67,SE,135,2.2,8.5,77,0.00,,,0.04,WUHU21636XXSP,2013-04-11 19:50:00,
2013-04-11 21:55:00,55.6,48.6,29.67,ENE,68,0.7,8.5,77,0.00,,,0.04,WUHU21636XXSP,2013-04-11 19:55:00,
2013-04-11 22:00:00,55.6,48.6,29.67,SE,135,3.1,3.1,77,0.00,,,0.04,WUHU21636XXSP,2013-04-11 20:00:00,
2013-04-11 22:05:00,55.6,48.6,29.67,SE,135,1.6,3.1,77,0.00,,,0.04,WUHU21636XXSP,2013-04-11 20:05:00,
2013-04-11 22:10:00,55.6,48.6,29.67,ESE,113,0.0,3.1,77,0.00,,,0.04,WUHU21636XXSP,2013-04-11 20:10:00,
2013-04-11 22:15:00,55.6,48.6,29.67,ESE,113,0.0,1.6,77,0.00,,,0.04,WUHU21636XXSP,2013-04-11 20:15:00,
2013-04-11 22:20:00,55.6,48.6,29.67,NW,315,0.0,0.0,77,0.00,,,0.04,WUHU21636XXSP,2013-04-11 20:20:00,
2013-04-11 22:25:00,55.6,48.6,29.67,NW,315,0.0,0.0,77,0.00,,,0.04,WUHU21636XXSP,2013-04-11 20:25:00,
2013-04-11 22:30:00,55.6,48.6,29.67,NW,315,0.0,0.0,77,0.00,,,0.04,WUHU21636XXSP,2013-04-11 20:30:00,
2013-04-11 22:35:00,55.6,48.6,29.67,NW,315,0.0,0.0,77,0.00,,,0.04,WUHU21636XXSP,2013-04-11 20:35:00,
2013-04-11 22:40:00,52.3,48.0,29.62,North,360,0.0,0.0,85,0.00,CLR,,0.00,WeatherDisplay:10.37,2013-04-11 20:40:00,
2013-04-11 22:50:00,52.3,48.0,29.62,North,360,0.0,0.0,85,0.00,CLR,,0.00,WeatherDisplay:10.37,2013-04-11 20:50:00,
2013-04-11 23:00:00,52.3,48.0,29.62,North,360,0.0,0.0,85,0.00,CLR,,0.00,WeatherDisplay:10.37,2013-04-11 21:00:00,
2013-04-11 23:10:00,52.3,48.0,29.62,North,360,0.0,0.0,85,0.00,CLR,,0.00,WeatherDisplay:10.37,2013-04-11 21:10:00,
2013-04-11 23:20:00,50.7,47.3,29.62,NNW,337,0.0,0.0,88,0.00,CLR,,0.00,WeatherDisplay:10.37,2013-04-11 21:20:00,
2013-04-11 23:30:00,50.7,47.3,29.61,NW,315,0.0,0.0,88,0.00,CLR,,0.00,WeatherDisplay:10.37,2013-04-11 21:30:00,
2013-04-11 23:35:00,54.7,48.4,29.67,WNW,293,0.9,0.9,79,0.00,,,0.04,WUHU21636XXSP,2013-04-11 21:35:00,
2013-04-11 23:40:00,54.5,48.2,29.67,WNW,293,0.4,0.9,79,0.00,,,0.04,WUHU21636XXSP,2013-04-11 21:40:00,
2013-04-11 23:45:00,54.5,48.2,29.67,WNW,293,0.4,0.9,79,0.02,,,0.06,WUHU21636XXSP,2013-04-11 21:45:00,
2013-04-11 23:50:00,54.5,48.2,29.67,WNW,293,0.4,0.4,79,0.02,,,0.06,WUHU21636XXSP,2013-04-11 21:50:00,
2013-04-11 23:55:00,54.5,48.2,29.67,WNW,293,0.4,0.4,79,0.02,,,0.06,WUHU21636XXSP,2013-04-11 21:55:00,